Flag for Colombia Weather past 2 weeks in Bogota, Colombia

Now
57 °F

Scattered clouds.


Feels Like: 56 °F
Forecast: 49 / 63 °F
Wind: 7 mph from Northeast

Location: Bogota / Eldorado

Current Time: Jul 28, 2015 at 9:02:03 AM

Latest Report: Jul 28, 2015 at 8:00 AM


Visibility: N/A

Pressure: 30.34 "Hg (22.22 "Hg at 2618m altitude)

Humidity: 72%

Dew point: 48 °F

Location of BogotaLocation

Historic Weather in Bogota — Graph

°F

Bogota temperature yesterday

Maximum temperature yesterday: 66 °F (at 12:00 PM)
Minimum temperature yesterday: 52 °F (at 2:00 AM)
Average temperature yesterday: 58 °F

Past Weeks' High & Low Weather Summary

 TemperatureHumidityPressure
High70 °F (Jul 14, 2:00 PM)100% (Jul 15, 6:00 AM)30.44 "Hg (Jul 15, 6:00 AM)
Low37 °F (Jul 19, 8:00 PM)40% (Jul 14, 3:00 PM)30.24 "Hg (Jul 27, 4:00 PM)
Average57 °F73%30.35 "Hg
* Reported Jul 13 8:00 AM — Jul 28 8:00 AM, Bogota, Weather by CustomWeather, © 2015

Note: Actual official high and low records may vary slightly from our data, if they occured in-between our weather recording intervals... More about our weather records

Advertising

Bogota weather history for previous 24 hours

 ConditionsComfort  
Time TempWeatherWind HumidityBarometerVisibility
8:00 AM
Tue, Jul 28
57 °FScattered clouds.7 mph72%30.34 "HgN/A
7:00 AM52 °FScattered showers. Partly sunny.5 mph88%30.32 "HgN/A
6:00 AM48 °FScattered showers. Scattered clouds.3 mph94%30.30 "HgN/A
5:00 AM48 °FPassing clouds.2 mph94%30.30 "HgN/A
4:00 AM48 °FPassing clouds.3 mph94%30.29 "HgN/A
3:00 AM50 °FPassing clouds.3 mphN/AN/AN/A
2:00 AM52 °FPassing clouds.5 mph82%30.30 "HgN/A
1:00 AM52 °FPassing clouds.5 mph88%30.31 "HgN/A
12:00 AM52 °FFog.N/A82%30.33 "HgN/A
11:00 PM
Mon, Jul 27
54 °FFog.N/A82%30.34 "HgN/A
10:00 PM55 °FFog.N/A77%30.35 "HgN/A
9:00 PM57 °FPassing clouds.3 mph72%30.33 "HgN/A
8:00 PM59 °FPassing clouds.7 mph68%30.31 "HgN/A
7:00 PM59 °FScattered showers. Passing clouds.9 mph68%30.30 "HgN/A
6:00 PM61 °FPartly sunny.12 mph63%30.26 "HgN/A
5:00 PM63 °FPartly sunny.12 mph56%30.24 "HgN/A
4:00 PM64 °FScattered clouds.12 mph60%30.24 "HgN/A
3:00 PM61 °FScattered showers. Partly sunny.17 mph68%30.26 "Hg5 mi
2:00 PM66 °FScattered showers. Partly sunny.14 mph52%30.26 "HgN/A
1:00 PM63 °FScattered clouds.14 mph59%30.29 "HgN/A
12:00 PM66 °FScattered showers. Scattered clouds.10 mph52%30.31 "HgN/A
11:00 AM64 °FScattered clouds.16 mph49%30.33 "HgN/A
10:00 AM63 °FBroken clouds.10 mph56%30.34 "HgN/A
9:00 AM59 °FScattered clouds.7 mph72%30.34 "HgN/A
Weather by CustomWeather, © 2015

See weather overviewHow to use our weather pages